Location: Anderson-Bull Spring
(38.7974°N, 122.7308°W)
Time: 09:29:12
(UTC+00:00)

Daily predictions for brighter satellites

Satellite Brightness Start Highest point End
(mag) Time Altitude Azimuth Time Altitude Azimuth Time Altitude Azimuth
SAR-Lupe-1 4.4 12:00:19 10° SSE 12:03:49 69° ENE 12:07:22 10° N
CZ-4B R/B 2.2 12:03:43 10° SSE 12:06:40 49° ENE 12:09:40 10° N
Cosmos 1125 Rocket 4.4 12:02:37 10° NW 12:07:01 28° W 12:11:24 10° SSW
STARLINK-1286 4.1 12:03:39 10° WSW 12:07:44 54° NW 12:11:50 10° NE
Cosmos 2151 3.3 12:03:55 10° SSW 12:08:02 48° W 12:12:12 10° N
MSX 3.9 12:05:40 10° N 12:11:23 67° WNW 12:17:03 10° SSW
Cosmos 1408 4.0 12:11:13 10° SW 12:14:12 23° WNW 12:17:11 10° NNW
ADEOS II 4.1 12:13:53 10° NW 12:16:07 13° WNW 12:18:21 10° W
Cosmos 1538 Rocket 4.2 12:11:42 10° SSW 12:17:02 82° ESE 12:22:25 10° NNE
STARLINK-24 4.1 12:14:41 10° SSW 12:18:34 52° SE 12:22:29 10° ENE
Cosmos 1844 Rocket 3.4 12:13:27 10° NNW 12:19:00 61° ENE 12:24:30 10° SE
STARLINK-1281 4.3 12:16:04 10° WSW 12:20:03 45° NW 12:24:02 10° NE
BREEZE-M DEB (TANK) 3.4 12:16:24 10° SW 12:21:17 46° SSE 12:24:02 10° ENE
CZ-3 R/B 3.7 12:18:35 10° WSW 12:44:36 44° S 12:52:01 10° ESE
